Date,TemperatureHighF,TemperatureAvgF,TemperatureLowF,DewpointHighF,DewpointAvgF,DewpointLowF,HumidityHigh,HumidityAvg,HumidityLow,PressureMaxIn,PressureMinIn,WindSpeedMaxMPH,WindSpeedAvgMPH,GustSpeedMaxMPH,PrecipitationSumIn
2014-1-1,5.9,-1.5,-14.1,0.7,-7.2,-19.4,80,76,70,30.23,29.89,3,1,0,0.00
2014-1-2,7.2,-5.9,-18.0,-2.7,-12.8,-23.5,76,72,57,30.24,29.82,2,0,0,0.00
2014-1-3,-4.2,-11.7,-26.1,-11.0,-18.2,-31.6,76,72,60,30.19,29.72,0,0,0,0.00
2014-1-4,22.5,-1.3,-27.0,8.6,-9.0,-32.5,79,70,46,30.22,29.94,0,0,0,0.00
2014-1-5,30.7,20.4,10.0,20.9,13.5,4.8,83,74,61,30.13,29.82,0,0,0,0.00
2014-1-6,43.3,30.2,14.0,43.0,27.9,10.7,99,91,81,29.80,29.11,18,5,0,0.73
2014-1-7,13.3,3.5,0.0,10.2,-3.0,-9.3,89,74,60,29.77,29.26,31,12,0,0.00
2014-1-8,12.0,6.5,1.2,2.2,-1.0,-5.7,78,71,63,30.18,29.77,20,9,0,0.00
2014-1-9,14.4,5.3,-8.3,3.7,-1.3,-13.5,80,74,54,30.45,30.15,17,5,0,0.00
2014-1-10,27.1,10.6,-10.5,17.5,4.1,-15.7,82,75,57,30.39,30.09,5,0,0,0.00
2014-1-11,47.3,36.3,19.9,47.0,35.2,16.4,99,96,82,30.09,29.02,8,2,0,0.95
2014-1-12,40.8,32.5,28.6,40.5,29.2,22.3,99,88,76,29.76,29.07,18,9,0,0.02
2014-1-13,45.1,35.1,21.2,25.0,20.8,16.1,89,59,32,29.88,29.66,17,4,0,0.00
2014-1-14,42.1,37.0,32.4,37.9,32.4,24.3,99,85,50,29.68,29.56,6,2,0,0.47
2014-1-15,40.5,32.7,22.3,32.3,27.6,21.1,99,82,64,29.84,29.62,12,3,0,0.04
2014-1-16,28.8,25.8,24.6,26.0,22.7,21.4,92,88,82,29.84,29.76,5,1,0,0.00
2014-1-17,36.9,28.8,18.1,29.8,24.3,14.6,96,83,71,29.79,29.70,6,1,0,0.00
2014-1-18,39.7,20.2,6.8,25.7,13.7,3.5,88,77,47,29.78,29.54,4,1,0,0.03
2014-1-19,33.8,21.5,15.3,22.6,16.0,11.6,87,80,61,29.55,29.20,10,2,0,0.00
2014-1-20,21.6,8.9,-6.2,18.1,3.0,-12.3,86,76,67,29.71,29.22,7,2,0,0.00
2014-1-21,-0.9,-10.0,-19.1,-11.0,-17.2,-25.0,74,70,60,29.91,29.71,5,1,0,0.00
2014-1-22,2.8,-15.1,-26.1,-9.5,-22.6,-32.1,73,68,48,29.84,29.58,6,1,0,0.00
2014-1-23,5.0,-10.9,-26.7,-5.8,-18.5,-32.9,72,68,58,29.94,29.73,7,2,0,0.00
2014-1-24,5.5,-7.0,-12.8,-8.3,-15.0,-19.2,74,68,49,30.02,29.68,10,3,0,0.00
2014-1-25,17.6,11.8,1.4,12.6,3.6,-7.6,82,69,57,29.67,29.08,9,2,0,0.00
2014-1-26,14.9,-1.3,-9.8,10.2,-10.4,-17.8,82,65,47,29.61,29.05,19,6,0,0.01
2014-1-27,31.8,11.3,-4.5,25.2,1.9,-12.6,84,66,43,29.75,29.22,32,8,0,0.01
2014-1-28,9.7,-1.4,-11.6,-9.1,-13.0,-18.3,71,58,39,30.00,29.74,17,5,0,0.00
2014-1-29,16.2,0.1,-20.0,-3.6,-13.1,-26.2,73,56,28,29.98,29.67,13,4,0,0.00
2014-1-30,26.2,12.7,5.5,5.1,1.1,-3.3,74,60,36,30.18,29.86,10,4,0,0.00
2014-1-31,29.8,23.6,14.2,14.9,7.8,-2.4,67,51,33,30.00,29.74,20,7,0,0.00